FW4540 Weather Reports


Display with metric or nautical units.
time (UTC)temp
F
wind
direction
speed
MPH
gust
MPH
rain 1hr
in
rain 24hr
in
rain mn
in
humidity
%
barometer
mb
20260510042011 57 0 0.0 0.0 0.03 0.08 0.08 92 10.8
20260510040012 58 225 4.0 10.0 0.02 0.07 0.07 88 10.5
20260510035011 58 247 1.0 7.0 0.01 0.05 0.05 92 10.4
20260510034011 58 0 0.0 0.0 0.01 0.05 0.05 92 10.4
20260510033011 58 0 0.0 0.0 0.02 0.05 0.05 90 10.5
20260510032011 58 0 0.0 0.0 0.02 0.05 0.05 89 10.5
20260510031011 59 247 0.0 3.0 0.05 0.05 0.05 88 10.3
20260510030012 60 247 2.0 7.0 0.05 0.05 0.05 87 10.3
20260510025011 60 225 4.0 10.0 0.04 0.04 0.04 86 10.3
20260510024011 60 225 0.0 2.0 0.04 0.04 0.04 89 10.3
20260510023011 60 225 0.0 2.0 0.03 0.03 0.03 89 10.3
20260510022011 60 247 0.0 3.0 0.02 0.02 0.02 88 10.2
20260510021011 61 247 2.0 7.0 0.00 0.00 0.00 85 10.1
20260510020012 61 0 0.0 0.0 0.00 0.00 0.00 88 10.0
20260510015011 61 0 0.0 0.0 0.00 0.00 0.00 86 9.9
20260510014011 61 0 0.0 0.0 0.00 0.00 0.00 86 9.9
20260510013011 61 0 0.0 0.0 0.00 0.00 0.00 87 9.8
20260510012011 61 0 0.0 0.0 0.00 0.00 0.00 85 9.8
20260510011011 60 0 0.0 0.0 0.00 0.00 0.00 86 9.7
20260510010012 61 180 0.0 1.0 0.00 0.00 0.00 86 9.8
20260510005011 61 0 0.0 0.0 0.00 0.00 0.00 85 9.8
20260510004011 61 180 0.0 2.0 0.00 0.00 0.00 85 9.9
20260510000011 62 180 0.0 2.0 0.00 0.00 0.00 82 10.0
20260509235011 63 0 0.0 0.0 0.00 0.00 0.00 78 10.1
20260509234011 63 90 0.0 1.0 0.00 0.00 0.00 76 10.4
20260509233011 63 0 0.0 0.0 0.00 0.00 0.00 81 10.6
20260509231011 63 0 0.0 0.0 0.00 0.00 0.00 79 10.6
20260509230011 64 0 0.0 0.0 0.00 0.00 0.00 79 10.8
20260509225011 64 90 1.0 3.0 0.00 0.00 0.00 77 10.8
20260509224011 64 0 0.0 0.0 0.00 0.00 0.00 81 10.8
20260509222011 64 0 0.0 0.0 0.00 0.00 0.00 78 11.0
20260509221012 64 0 0.0 0.0 0.00 0.00 0.00 83 11.1
20260509220011 64 0 0.0 0.0 0.00 0.00 0.00 80 11.1
20260509215011 63 0 0.0 0.0 0.00 0.00 0.00 83 11.1
20260509212011 62 0 0.0 0.0 0.00 0.00 0.00 92 10.8
20260509211011 62 0 0.0 0.0 0.00 0.00 0.00 89 10.8
20260509210011 62 0 0.0 0.0 0.00 0.00 0.00 85 10.8
20260509203011 63 0 0.0 0.0 0.00 0.00 0.00 84 11.0
20260509202011 63 0 0.0 0.0 0.00 0.00 0.00 86 11.0
20260509201011 63 0 0.0 0.0 0.00 0.00 0.00 86 11.0
20260509200011 64 0 0.0 0.0 0.00 0.00 0.00 83 11.0
20260509195011 63 0 0.0 0.0 0.00 0.00 0.00 84 10.9
20260509194011 63 0 0.0 0.0 0.00 0.00 0.00 84 10.9
20260509193011 63 0 0.0 0.0 0.00 0.00 0.00 84 10.7
20260509192011 64 0 0.0 0.0 0.00 0.00 0.00 83 10.6
20260509185011 67 0 0.0 0.0 0.00 0.00 0.00 79 10.4
20260509184011 67 0 0.0 0.0 0.00 0.00 0.00 77 10.5
20260509183011 69 0 0.0 0.0 0.00 0.00 0.00 72 10.5
20260509182011 70 0 0.0 0.0 0.00 0.00 0.00 72 10.6
20260509181011 71 0 0.0 0.0 0.00 0.00 0.00 68 10.6
20260509175011 72 45 2.0 4.0 0.00 0.00 0.00 63 10.7
20260509174010 73 225 1.0 2.0 0.00 0.00 0.00 62 10.7
20260509173011 73 225 0.0 1.0 0.00 0.00 0.00 60 10.7
20260509172011 73 225 0.0 1.0 0.00 0.00 0.00 56 10.7
20260509171010 73 225 1.0 2.0 0.00 0.00 0.00 53 10.9
20260509170011 73 225 0.0 2.0 0.00 0.00 0.00 55 10.9
20260509165011 74 247 1.0 4.0 0.00 0.00 0.00 56 11.1
20260509164010 74 45 0.0 1.0 0.00 0.00 0.00 55 11.1
20260509162010 74 180 0.0 3.0 0.00 0.00 0.00 52 11.2
20260509161010 74 135 2.0 5.0 0.00 0.00 0.00 58 11.3
20260509160011 74 225 2.0 5.0 0.00 0.00 0.00 54 11.3
20260509155011 74 157 0.0 3.0 0.00 0.00 0.00 57 11.3
20260509154010 74 135 0.0 3.0 0.00 0.00 0.00 57 11.4
20260509153011 74 135 2.0 5.0 0.00 0.00 0.00 58 11.4
20260509151010 74 180 0.0 5.0 0.00 0.00 0.00 53 11.6
20260509150011 74 157 2.0 5.0 0.00 0.00 0.00 53 11.6
20260509145010 74 225 2.0 4.0 0.00 0.00 0.00 56 11.7
20260509143010 74 135 1.0 4.0 0.00 0.00 0.00 56 11.9
20260509141010 74 180 1.0 3.0 0.00 0.00 0.00 52 12.1
20260509140011 74 157 4.0 7.0 0.00 0.00 0.00 57 12.1
20260509135010 73 225 2.0 6.0 0.00 0.00 0.00 56 12.1
20260509134010 73 202 1.0 3.0 0.00 0.00 0.00 53 12.2
20260509133010 74 157 3.0 5.0 0.00 0.00 0.00 56 12.4
20260509132010 73 157 2.0 9.0 0.00 0.00 0.00 52 12.6
20260509131010 73 157 3.0 6.0 0.00 0.00 0.00 59 12.6
20260509130011 73 157 3.0 7.0 0.00 0.00 0.00 54 12.5
20260509124010 72 225 3.0 6.0 0.00 0.00 0.00 53 12.6
20260509123010 72 135 3.0 8.0 0.00 0.00 0.00 57 12.8
20260509122010 72 135 5.0 10.0 0.00 0.00 0.00 51 13.1
20260509121010 72 225 3.0 8.0 0.00 0.00 0.00 59 13.2
20260509120011 72 157 3.0 8.0 0.00 0.00 0.00 58 13.2
20260509114010 71 157 5.0 9.0 0.00 0.00 0.00 58 13.5
20260509113010 71 180 3.0 9.0 0.00 0.00 0.00 54 13.6
20260509112010 71 157 4.0 8.0 0.00 0.00 0.00 56 13.7
20260509111010 71 157 4.0 9.0 0.00 0.00 0.00 59 13.9
20260509110011 70 157 3.0 6.0 0.00 0.00 0.00 57 14.1
20260509105010 70 157 5.0 10.0 0.00 0.00 0.00 63 14.3
20260509104010 70 157 2.0 6.0 0.00 0.00 0.00 62 14.4
20260509103010 69 112 5.0 8.0 0.00 0.00 0.00 62 14.5
20260509102010 69 135 5.0 10.0 0.00 0.00 0.00 65 14.7
20260509101010 68 157 5.0 8.0 0.00 0.00 0.00 63 14.8
20260509100010 69 225 2.0 6.0 0.00 0.00 0.00 64 14.8
20260509095010 69 225 2.0 8.0 0.00 0.00 0.00 65 14.9
20260509093010 68 157 4.0 11.0 0.00 0.00 0.00 63 15.1
20260509092010 67 157 4.0 9.0 0.00 0.00 0.00 66 15.1
20260509091010 66 157 2.0 6.0 0.00 0.00 0.00 68 15.2
20260509085010 65 157 3.0 7.0 0.00 0.00 0.00 69 15.2
20260509084010 65 180 2.0 5.0 0.00 0.00 0.00 72 15.3
20260509083010 63 225 3.0 8.0 0.00 0.00 0.00 73 15.3
20260509082010 63 157 3.0 7.0 0.00 0.00 0.00 72 15.4
20260509081010 64 247 4.0 8.0 0.00 0.00 0.00 67 15.4
20260509080010 64 157 2.0 5.0 0.00 0.00 0.00 73 15.3
20260509075010 63 157 3.0 7.0 0.00 0.00 0.00 74 15.4
20260509074010 62 225 3.0 9.0 0.00 0.00 0.00 71 15.4
20260509073010 62 157 3.0 10.0 0.00 0.00 0.00 73 15.4
20260509072010 62 225 4.0 10.0 0.00 0.00 0.00 72 15.4
20260509071010 62 180 3.0 7.0 0.00 0.00 0.00 73 15.4
20260509065010 60 157 4.0 7.0 0.00 0.00 0.00 78 15.3
20260509064010 59 157 0.0 3.0 0.00 0.00 0.00 80 15.3
20260509063010 58 180 1.0 4.0 0.00 0.00 0.00 80 15.3
20260509062010 57 0 0.0 0.0 0.00 0.00 0.00 80 15.3
20260509060010 56 180 0.0 3.0 0.00 0.00 0.00 82 15.2
20260509055010 55 0 0.0 0.0 0.00 0.00 0.00 84 15.1
20260509054010 54 0 0.0 0.0 0.00 0.00 0.00 87 15.1
20260509053010 53 0 0.0 0.0 0.00 0.00 0.00 89 15.0
20260509051010 51 0 0.0 0.0 0.00 0.00 0.00 95 14.8
20260509050010 49 0 0.0 0.0 0.00 0.00 0.00 97 14.7
20260509045010 48 0 0.0 0.0 0.00 0.00 0.00 96 14.7
20260509044010 48 0 0.0 0.0 0.00 0.00 0.00 96 14.7
20260509043010 48 0 0.0 0.0 0.00 0.00 0.00 95 14.7